Location: Jablonec nad Nisou
(50.7170°N, 15.1830°E)
Time: 20:22:55
(UTC+01:00)

ISS - Visible Passes

Search period start: 09 December 2018 00:00
Search period end: 19 December 2018 00:00
Orbit: 401 x 408 km, 51.6° (Epoch: 10 December)

Date Brightness Start Highest point End Pass type
(mag) Time Alt. Az. Time Alt. Az. Time Alt. Az.
09 Dec -3.8 16:46:01 10° WNW 16:49:18 88° SSW 16:52:34 10° ESE visible
09 Dec -2.1 18:22:41 10° W 18:25:33 28° SSW 18:25:52 27° SSW visible
10 Dec -2.7 17:30:21 10° W 17:33:28 42° SSW 17:36:18 12° SE visible
11 Dec -3.3 16:38:04 10° WNW 16:41:19 61° SSW 16:44:32 10° ESE visible
11 Dec -0.9 18:15:16 10° WSW 18:17:18 16° SW 18:19:21 10° S visible
12 Dec -1.5 17:22:35 10° W 17:25:17 24° SW 17:27:59 10° SSE visible
13 Dec -2.1 16:30:09 10° W 16:33:11 36° SSW 16:36:13 10° SE visible
14 Dec -0.6 17:15:19 10° WSW 17:16:57 13° SW 17:18:35 10° S visible
